* Astronomy

Members Login
Username 
 
Password 
    Remember Me  
Post Info TOPIC: Asteroid 2010 PW58


L

Posts: 131433
Date:
Asteroid 2010 PW58
Permalink  
 


Orbital elements:
2010 PW58 PHA, Earth MOID = 0.0219 AU
Epoch 2010 July 23.0 TT = JDT 2455400.5 MPC
M 207.26292 (2000.0) P Q
n 1.17728038 Peri. 130.98979 -0.10896250 -0.98362334
a 0.8882791 Node 324.48230 +0.82161639 -0.00782049
e 0.2128026 Incl. 14.30760 +0.55952988 -0.18006656
P 0.84 H 21.1 G 0.15 U 8

MPEC 2010 - P62


__________________
Page 1 of 1  sorted by
 
Quick Reply

Please log in to post quick replies.



Create your own FREE Forum
Report Abuse
Powered by ActiveBoard